EW0976 Weather Reports


time (UTC)temp
F
wind
direction
speed
knots
gust
knots
rain 1hr
in
rain 24hr
in
rain mn
in
humidity
%
barometer
mb
20260505102108 57 169 1.7 4.3 0.00 0.00 0.00 96 980.9
20260505101609 57 155 2.6 5.2 0.00 0.00 0.00 96 980.8
20260505100608 57 197 0.0 0.0 0.00 0.00 0.00 95 981.3
20260505100109 57 187 0.0 2.6 0.00 0.00 0.00 94 981.7
20260505095608 57 242 0.0 1.7 0.00 0.00 0.00 94 981.8
20260505095108 58 194 0.9 2.6 0.00 0.00 0.00 94 981.9
20260505094608 58 194 0.9 2.6 0.00 0.00 0.00 93 981.8
20260505094109 58 220 0.9 2.6 0.00 0.00 0.00 93 981.9
20260505093608 58 112 0.0 0.9 0.00 0.00 0.00 92 981.9
20260505092108 60 305 0.9 1.7 0.00 0.00 0.00 88 981.6
20260505091608 60 228 0.9 5.2 0.00 0.00 0.00 86 981.6
20260505091108 61 324 0.9 4.3 0.00 0.00 0.00 82 981.5
20260505090608 61 183 1.7 5.2 0.00 0.00 0.00 80 981.2
20260505090108 61 0 0.9 2.6 0.00 0.00 0.00 78 981.1
20260505085608 62 209 0.0 2.6 0.00 0.00 0.00 76 980.7
20260505085108 62 348 0.9 2.6 0.00 0.00 0.00 75 980.3
20260505084608 62 20 0.9 4.3 0.00 0.00 0.00 74 980.2
20260505084108 63 14 1.7 2.6 0.00 0.00 0.00 72 980.6
20260505083608 63 323 0.0 1.7 0.00 0.00 0.00 67 980.1
20260505083108 63 153 0.0 1.7 0.00 0.00 0.00 68 979.8
20260505082608 63 154 1.7 1.7 0.00 0.00 0.00 67 979.7
20260505082108 63 170 0.0 0.0 0.00 0.00 0.00 67 979.6
20260505081608 63 170 0.0 0.0 0.00 0.00 0.00 67 979.5
20260505081108 63 170 0.0 0.9 0.00 0.00 0.00 67 979.4
20260505080608 63 178 0.0 0.0 0.00 0.00 0.00 66 979.2
20260505080108 63 127 0.0 0.0 0.00 0.00 0.00 66 979.1
20260505075608 63 127 0.0 1.7 0.00 0.00 0.00 65 979.1
20260505075107 63 146 0.9 1.7 0.00 0.00 0.00 65 979.1
20260505074608 63 186 0.0 0.9 0.00 0.00 0.00 66 979.3
20260505074108 63 184 0.0 1.7 0.00 0.00 0.00 66 979.3
20260505073108 63 220 0.0 0.9 0.00 0.00 0.00 66 979.3
20260505072608 63 216 0.0 0.0 0.00 0.00 0.00 66 979.2
20260505071608 63 194 0.0 0.0 0.00 0.00 0.00 66 979.2
20260505071108 63 194 0.0 0.0 0.00 0.00 0.00 66 979.1
20260505070608 63 194 0.0 0.0 0.00 0.00 0.00 65 979.1
20260505070108 64 194 0.0 0.9 0.00 0.00 0.00 65 979.1
20260505065608 64 167 0.0 1.7 0.00 0.00 0.00 65 979.1
20260505065107 64 221 0.0 0.0 0.00 0.00 0.00 64 979.0
20260505064608 64 195 0.0 1.7 0.00 0.00 0.00 64 979.0
20260505064108 64 236 0.0 1.7 0.00 0.00 0.00 64 979.0
20260505063608 65 248 0.9 2.6 0.00 0.00 0.00 63 978.9
20260505063108 65 231 1.7 4.3 0.00 0.00 0.00 63 978.8
20260505062608 65 202 2.6 4.3 0.00 0.00 0.00 63 978.8
20260505060607 65 208 2.6 4.3 0.00 0.00 0.00 62 978.7
20260505060108 65 196 1.7 4.3 0.00 0.00 0.00 62 978.7
20260505055107 65 190 1.7 4.3 0.00 0.00 0.00 62 978.6
20260505054608 66 207 1.7 2.6 0.00 0.00 0.00 62 978.6
20260505054108 66 197 2.6 5.2 0.00 0.00 0.00 61 978.4
20260505053608 66 188 1.7 7.8 0.00 0.00 0.00 60 978.3
20260505053108 66 187 2.6 6.1 0.00 0.00 0.00 60 978.2
20260505052608 66 185 2.6 6.1 0.00 0.00 0.00 60 978.2
20260505052108 66 172 4.3 7.8 0.00 0.00 0.00 60 978.1
20260505051608 66 175 4.3 7.0 0.00 0.00 0.00 60 978.1
20260505051107 67 197 2.6 6.1 0.00 0.00 0.00 60 978.1
20260505050607 67 180 4.3 6.1 0.00 0.00 0.00 60 978.0
20260505050108 67 184 4.3 7.8 0.00 0.00 0.00 60 978.0
20260505041607 67 210 2.6 8.7 0.00 0.00 0.00 60 978.6
20260505040608 67 190 4.3 7.8 0.00 0.00 0.00 59 978.6
20260505040108 67 182 2.6 7.0 0.00 0.00 0.00 59 978.7
20260505035608 67 172 2.6 7.0 0.00 0.00 0.00 59 978.7
20260505035108 67 180 2.6 6.1 0.00 0.00 0.00 60 978.7
20260505034608 68 185 2.6 5.2 0.00 0.00 0.00 59 978.7
20260505034108 68 181 2.6 6.1 0.00 0.00 0.00 59 978.7
20260505033608 68 185 1.7 2.6 0.00 0.00 0.00 59 978.9
20260505033107 68 186 2.6 5.2 0.00 0.00 0.00 58 978.9
20260505032608 68 184 1.7 6.1 0.00 0.00 0.00 59 978.8
20260505032108 68 180 1.7 4.3 0.00 0.00 0.00 58 978.8
20260505031607 68 180 1.7 4.3 0.00 0.00 0.00 58 978.8
20260505030607 69 185 2.6 6.1 0.00 0.00 0.00 57 978.7
20260505030108 69 173 1.7 6.1 0.00 0.00 0.00 57 978.7
20260505025608 69 186 1.7 5.2 0.00 0.00 0.00 57 978.7
20260505025108 69 187 1.7 4.3 0.00 0.00 0.00 57 978.6
20260505024608 69 179 1.7 4.3 0.00 0.00 0.00 57 978.6
20260505024108 69 182 1.7 4.3 0.00 0.00 0.00 57 978.5
20260505023607 69 153 2.6 5.2 0.00 0.00 0.00 56 978.4
20260505023107 69 173 2.6 6.1 0.00 0.00 0.00 56 978.3
20260505022607 69 172 2.6 6.1 0.00 0.00 0.00 56 978.3
20260505021608 69 178 2.6 6.1 0.00 0.00 0.00 56 978.2
20260505021107 69 169 2.6 5.2 0.00 0.00 0.00 56 978.1
20260505020607 70 172 2.6 5.2 0.00 0.00 0.00 56 978.0
20260505020107 70 173 2.6 5.2 0.00 0.00 0.00 55 977.9
20260505015607 70 174 2.6 6.1 0.00 0.00 0.00 55 977.8
20260505015107 70 171 3.5 7.0 0.00 0.00 0.00 54 977.7
20260505014608 70 174 2.6 6.1 0.00 0.00 0.00 55 977.6
20260505013607 70 173 3.5 7.0 0.00 0.00 0.00 54 977.5
20260505013107 70 185 2.6 6.1 0.00 0.00 0.00 55 977.5
20260505012608 71 170 2.6 5.2 0.00 0.00 0.00 54 977.5
20260505011607 71 178 2.6 5.2 0.00 0.00 0.00 54 977.4
20260505011108 71 166 2.6 5.2 0.00 0.00 0.00 54 977.4
20260505010608 71 198 2.6 5.2 0.00 0.00 0.00 54 977.4
20260505010108 71 176 2.6 5.2 0.00 0.00 0.00 55 977.4
20260505005607 71 177 1.7 4.3 0.00 0.00 0.00 55 977.4
20260505005108 72 163 1.7 4.3 0.00 0.00 0.00 54 977.4
20260505004607 72 191 1.7 4.3 0.00 0.00 0.00 54 977.5
20260505004107 72 190 2.6 7.0 0.00 0.00 0.00 54 977.5
20260505003607 72 185 1.7 4.3 0.00 0.00 0.00 53 977.5
20260505003108 72 176 2.6 10.4 0.00 0.00 0.00 54 977.5
20260505002608 73 189 2.6 6.1 0.00 0.00 0.00 53 977.5
20260505001608 73 190 1.7 6.1 0.00 0.00 0.00 53 977.5
20260505000607 73 177 4.3 7.8 0.00 0.00 0.00 52 977.4
20260505000107 73 163 3.5 7.8 0.00 0.00 0.00 51 977.6
20260504235607 74 175 2.6 5.2 0.00 0.00 0.00 51 977.6
20260504235107 74 170 2.6 5.2 0.00 0.00 0.00 50 977.6
20260504234607 74 178 3.5 6.1 0.00 0.00 0.00 50 977.6
20260504234108 74 173 1.7 4.3 0.00 0.00 0.00 49 977.8
20260504233608 75 181 1.7 5.2 0.00 0.00 0.00 49 977.8
20260504233108 74 165 2.6 6.1 0.00 0.00 0.00 48 977.9
20260504232607 75 186 1.7 5.2 0.00 0.00 0.00 48 978.0
20260504232108 75 266 2.6 6.1 0.00 0.00 0.00 47 978.0
20260504231607 75 206 1.7 5.2 0.00 0.00 0.00 48 978.0
20260504231107 75 181 2.6 5.2 0.00 0.00 0.00 47 978.2
20260504230107 76 180 2.6 7.8 0.00 0.00 0.00 46 978.3
20260504225608 76 181 2.6 6.1 0.00 0.00 0.00 45 978.3
20260504225107 76 208 2.6 7.0 0.00 0.00 0.00 44 978.3
20260504224607 76 244 2.6 7.0 0.00 0.00 0.00 43 978.3
20260504224107 76 203 2.6 7.0 0.00 0.00 0.00 44 978.3
20260504223107 76 229 2.6 7.8 0.00 0.00 0.00 44 978.4
20260504222607 75 214 3.5 7.0 0.00 0.00 0.00 46 978.4
20260504222107 75 216 2.6 6.1 0.00 0.00 0.00 51 978.4
20260504221607 75 181 2.6 6.1 0.00 0.00 0.00 52 978.4
20260504221107 74 167 3.5 6.1 0.00 0.00 0.00 53 978.3
20260504220607 74 156 4.3 7.0 0.00 0.00 0.00 53 978.4
20260504220107 74 151 4.3 6.1 0.00 0.00 0.00 52 978.5
20260504215607 74 163 3.5 7.0 0.00 0.00 0.00 52 978.6
20260504215107 75 183 3.5 7.0 0.00 0.00 0.00 51 978.4
20260504214608 75 163 4.3 7.0 0.00 0.00 0.00 52 978.3
20260504214107 74 165 2.6 7.0 0.00 0.00 0.00 51 978.3
20260504213607 75 162 2.6 7.0 0.00 0.00 0.00 52 978.4
20260504213107 75 169 0.9 4.3 0.00 0.00 0.00 50 978.6
20260504212607 75 175 0.9 2.6 0.00 0.00 0.00 49 978.9
20260504211607 76 191 0.9 2.6 0.00 0.00 0.00 49 979.1
20260504211108 76 156 0.9 2.6 0.00 0.00 0.00 49 979.1
20260504210107 76 241 2.6 5.2 0.00 0.00 0.00 46 979.1
20260504205607 76 283 0.9 4.3 0.00 0.00 0.00 47 979.0
20260504205107 75 262 1.7 5.2 0.00 0.00 0.00 48 979.4
20260504204107 76 257 0.9 4.3 0.00 0.00 0.00 48 979.3
20260504203607 76 209 2.6 5.2 0.00 0.00 0.00 48 979.4
20260504203107 76 206 2.6 7.0 0.00 0.00 0.00 48 979.5
20260504202607 76 197 1.7 7.0 0.00 0.00 0.00 48 979.4
20260504202107 76 210 1.7 7.8 0.00 0.00 0.00 51 979.5
20260504201607 76 279 1.7 7.8 0.00 0.00 0.00 49 979.6
20260504201107 75 293 1.7 5.2 0.00 0.00 0.00 50 979.5
20260504200607 74 248 1.7 4.3 0.00 0.00 0.00 51 979.6
20260504200107 73 281 2.6 5.2 0.00 0.00 0.00 53 979.8
20260504195607 73 290 1.7 6.1 0.00 0.00 0.00 53 980.0
20260504194607 74 217 1.7 7.0 0.00 0.00 0.00 53 980.1
20260504194107 75 198 1.7 7.0 0.00 0.00 0.00 52 980.0
20260504193607 75 280 2.6 5.2 0.00 0.00 0.00 53 979.7
20260504192607 73 244 1.7 4.3 0.00 0.00 0.00 55 979.8
20260504192107 72 309 2.6 5.2 0.00 0.00 0.00 54 979.9
20260504190606 69 241 0.0 2.6 0.00 0.00 0.00 63 980.5
20260504190107 69 249 0.9 2.6 0.00 0.00 0.00 64 980.8
20260504185607 68 186 0.0 0.9 0.00 0.00 0.00 63 980.3
20260504185107 68 234 0.9 2.6 0.00 0.00 0.00 62 981.1
20260504184606 68 245 0.9 4.3 0.00 0.00 0.00 64 981.2
20260504184107 68 180 0.9 4.3 0.00 0.00 0.00 63 981.3
20260504183107 69 220 0.9 4.3 0.00 0.00 0.00 60 981.4
20260504182107 69 230 1.7 6.1 0.00 0.00 0.00 59 981.1
20260504181607 69 213 1.7 6.1 0.00 0.00 0.00 60 981.0
20260504181107 69 214 1.7 6.1 0.00 0.00 0.00 59 981.1
20260504180607 69 218 1.7 8.7 0.00 0.00 0.00 60 981.1
20260504180107 70 243 1.7 5.2 0.00 0.00 0.00 58 981.0
20260504175607 70 239 2.6 6.1 0.00 0.00 0.00 57 980.8
20260504175107 70 180 1.7 10.4 0.00 0.00 0.00 58 980.8
20260504174107 71 207 2.6 7.8 0.00 0.00 0.00 57 980.5
20260504173607 72 186 4.3 8.7 0.00 0.00 0.00 55 980.3
20260504172606 72 209 1.7 10.4 0.00 0.00 0.00 55 980.1
20260504172107 73 193 2.6 8.7 0.00 0.00 0.00 55 979.9
20260504171606 72 167 4.3 7.8 0.00 0.00 0.00 55 979.8
20260504171107 71 227 2.6 5.2 0.00 0.00 0.00 55 979.8
20260504170607 71 231 2.6 6.1 0.00 0.00 0.00 55 980.0
20260504170107 70 227 4.3 10.4 0.00 0.00 0.00 56 980.1
20260504150607 64 188 0.9 4.3 0.00 0.00 0.00 65 980.7
20260504150106 64 200 2.6 6.1 0.00 0.00 0.00 66 980.9
20260504140106 60 203 3.5 8.7 0.00 0.00 0.00 68 981.1
20260504130607 56 154 4.3 7.0 0.00 0.00 0.00 74 981.4
20260504130107 55 171 2.6 6.1 0.00 0.00 0.00 73 981.5
20260504120106 53 184 1.7 4.3 0.00 0.00 0.00 74 981.7
20260504110607 53 177 2.6 5.2 0.00 0.00 0.00 68 981.7
20260504110106 53 198 1.7 2.6 0.00 0.00 0.00 68 981.8